Theta_e
310 310 310 310 310 310 310 310 311 311 311 312 312 312 312 313 313 314 314 314 313 313 312 312 314 315 315 317 318 317 309 310 314 314 314 316 314 316 316 316 316 316 316 315 315
310 310 310 310 310 310 311 311 311 312 312 312 312 313 313 314 314 315 313 313 312 312 311 312 313 314 316 317 318 313 307 310 311 314 315 315 315 315 315 315 315 314 315 315 315
309 309 309 310 310 311 311 312 312 312 312 312 313 314 315 317 318 315 312 312 312 311 312 313 316 316 315 317 318 314 311 312 315 316 316 315 315 315 314 313 315 315 315 314 314
309 309 310 311 311 312 312 312 312 312 313 315 317 318 319 319 316 314 312 313 312 312 312 313 316 316 314 314 316 316 316 315 316 316 316 314 316 315 315 316 315 314 313 313 314
309 310 310 311 312 312 311 312 313 315 318 319 319 318 317 316 319 319 314 313 314 313 312 313 314 315 313 313 313 314 314 314 315 315 314 314 314 313 314 315 314 313 312 313 314
310 311 312 312 311 311 312 314 317 319 318 317 317 317 316 313 317 318 318 317 315 312 312 312 314 314 314 313 313 313 313 313 314 314 313 312 312 312 315 315 313 313 312 313 313
311 311 311 310 310 313 316 318 318 317 317 317 318 318 317 317 316 316 316 316 313 312 312 312 314 314 314 313 313 313 311 309 311 312 311 312 312 311 316 314 313 311 311 312 312
311 311 311 312 315 317 318 317 317 317 317 318 319 319 317 316 316 315 314 314 314 313 312 313 314 314 314 313 311 311 310 311 311 312 312 312 312 312 315 314 310 309 309 309 309
313 315 316 317 317 317 316 316 317 318 319 320 320 317 316 314 314 314 313 312 312 312 313 313 314 313 313 308 308 308 310 309 310 312 311 311 311 311 314 312 309 306 305 306 306
317 317 317 316 315 316 317 318 319 320 321 320 318 316 316 314 312 312 311 311 311 312 312 312 312 307 306 306 311 310 310 309 310 311 311 311 309 309 310 308 306 303 303 303 302
315 315 315 315 316 317 319 320 320 321 320 319 317 317 315 314 312 310 311 311 311 311 308 310 307 307 308 307 309 309 309 310 309 310 311 310 309 308 305 304 302 301 300 300 300
316 315 315 316 317 319 321 322 321 319 320 319 321 318 315 316 314 314 312 312 311 310 308 309 308 308 308 307 308 309 311 310 309 309 309 309 309 304 303 302 301 300 299 299 300
316 316 316 317 319 321 321 321 321 321 319 319 319 319 320 319 318 318 314 311 310 308 308 310 312 310 309 309 311 311 310 311 312 310 308 308 308 307 303 301 300 300 299 299 300
317 316 316 318 320 321 322 321 321 320 317 316 316 317 317 318 317 318 313 313 310 310 308 309 310 311 310 312 311 314 310 311 311 310 311 307 311 308 304 301 299 299 299 299 300
318 317 317 319 321 321 321 321 321 318 324 315 312 311 314 316 311 309 309 311 310 311 310 313 311 311 312 312 311 313 309 309 309 308 308 308 309 306 304 303 300 298 299 299 299
319 318 319 319 321 321 321 321 319 319 325 313 308 308 309 308 308 308 310 311 311 309 309 311 309 309 311 308 309 307 309 307 305 306 310 308 309 309 306 305 300 299 299 299 299
321 319 320 321 322 322 322 320 321 324 316 312 308 306 307 306 307 307 307 307 308 310 310 310 310 309 310 310 308 308 311 314 311 309 313 308 308 308 305 301 301 299 298 299 299
323 321 321 322 322 321 320 320 323 321 320 310 309 307 308 306 306 307 306 308 306 310 310 313 316 309 309 310 311 308 311 311 307 312 312 309 314 312 301 299 300 300 299 298 299
324 322 321 322 320 321 319 324 322 320 316 312 311 310 310 310 308 308 307 308 308 307 316 314 315 307 307 307 309 309 310 308 309 298 309 310 309 304 300 298 298 298 298 299 299
321 321 321 322 323 321 321 323 321 318 316 312 313 313 311 315 313 307 307 308 312 307 311 312 314 310 308 308 306 308 307 311 307 307 306 309 310 310 302 300 297 296 298 299 300
317 317 319 321 322 319 323 321 320 315 315 316 314 317 315 316 313 310 313 312 310 307 310 310 311 311 309 309 309 307 308 307 309 305 304 303 307 304 304 301 298 297 300 301 301
314 314 316 316 317 315 321 316 315 312 314 314 313 315 314 312 315 315 315 313 309 310 312 310 309 307 310 307 305 306 307 307 311 308 305 307 309 303 303 301 299 299 302 303 302
315 314 314 311 318 314 311 313 314 314 315 315 316 314 313 315 316 311 309 308 309 309 311 310 307 303 306 306 306 308 307 305 305 303 304 307 308 301 300 300 301 301 303 303 302
312 310 310 311 309 310 312 313 313 310 311 313 313 310 310 311 313 311 308 308 308 309 309 309 305 306 312 306 305 306 307 305 302 300 303 308 306 302 301 300 299 300 301 299 300
309 309 309 309 309 309 311 309 312 310 308 309 308 311 311 310 309 308 308 306 305 307 305 307 306 304 303 304 303 303 303 304 303 304 305 305 304 303 301 300 301 302 299 298 299
304 304 305 305 309 309 310 308 310 311 309 310 309 309 309 310 309 308 307 306 307 303 305 300 301 300 304 300 302 304 302 303 303 304 302 302 303 302 299 300 300 299 298 297 297
302 302 304 303 306 310 308 309 308 309 307 307 308 307 308 308 305 303 304 304 304 303 303 300 299 300 308 295 296 299 297 300 300 300 302 303 302 291 294 294 296 296 296 295 296
Wind_Speed
7 6 6 5 5 5 5 5 5 6 6 6 7 8 9 10 11 12 13 4 4 5 4 4 4 2 1 2 2 2 4 2 3 4 3 6 6 3 11 6 3 6 7 11 15
9 8 8 7 7 7 7 7 7 7 8 8 10 10 11 11 12 12 4 3 4 5 5 4 4 3 2 2 2 4 3 7 4 3 3 6 3 7 6 13 8 13 15 14 13
11 10 9 9 9 9 9 8 9 9 9 9 10 11 12 11 13 3 5 5 6 7 6 5 5 2 0 1 3 3 4 4 4 7 4 3 8 1 3 6 18 14 19 16 12
13 12 11 11 11 11 10 10 10 10 10 10 10 11 11 9 4 3 5 5 4 5 5 6 5 3 1 2 3 1 6 6 3 4 4 4 8 6 10 20 21 16 10 10 10
15 14 14 14 14 13 12 12 11 11 11 11 12 11 11 7 9 9 9 8 8 8 9 6 7 5 3 3 1 3 4 7 11 15 12 10 14 8 23 15 9 6 1 6 7
17 17 17 17 16 14 13 13 13 13 12 12 11 11 10 7 9 10 10 10 10 9 11 9 6 7 3 3 3 2 6 12 13 17 12 7 7 1 6 3 9 8 7 9 9
21 20 19 18 17 15 14 14 13 13 12 12 12 11 13 17 11 10 9 8 8 9 10 10 9 7 5 1 1 2 5 7 10 5 6 3 3 6 10 9 11 7 6 5 5
22 21 19 18 18 17 16 15 13 13 12 12 12 11 10 12 12 13 13 11 10 10 9 8 7 6 3 1 4 2 3 3 2 2 1 5 8 7 10 14 10 4 3 4 4
23 22 21 19 17 16 15 14 13 13 14 13 11 8 8 9 11 12 10 8 9 9 9 7 6 4 3 5 4 4 3 5 8 1 2 2 5 14 15 17 12 6 7 7 6
24 22 21 19 16 16 14 14 13 14 14 12 12 5 14 7 8 9 9 9 6 9 7 5 4 3 3 4 5 6 5 5 6 1 3 3 9 12 19 12 9 11 11 12 13
24 22 20 17 16 16 13 11 10 6 16 12 5 6 2 10 10 10 12 12 9 6 5 3 3 7 13 11 2 3 4 5 4 4 3 6 8 4 8 15 15 14 16 17 19
24 22 20 17 17 17 14 9 9 3 8 16 25 21 14 10 8 13 14 11 7 6 7 3 7 12 4 4 4 3 3 6 6 4 5 7 10 6 10 7 11 15 16 17 18
26 24 21 19 19 19 17 15 13 8 5 9 20 19 23 21 12 16 19 11 5 6 8 8 6 4 8 5 5 4 5 5 7 3 1 4 7 4 5 13 15 15 16 15 18
28 26 23 20 19 21 21 15 11 4 3 6 7 7 12 11 6 14 22 9 3 10 7 6 5 5 4 5 7 3 7 3 3 2 2 2 4 3 5 5 6 10 13 16 16
31 29 27 27 13 17 17 15 11 5 6 2 4 7 12 10 10 5 15 7 7 6 6 7 5 5 4 6 6 6 4 4 2 3 3 3 1 6 6 4 4 8 12 13 14
35 33 30 27 28 20 16 17 14 4 11 4 6 6 6 5 4 6 5 4 4 4 2 6 2 5 8 3 6 5 4 5 4 3 0 7 7 4 5 4 6 12 14 14 14
41 37 36 36 35 27 20 22 4 8 1 6 6 6 4 6 4 5 6 5 6 6 6 1 3 1 2 5 3 4 5 2 3 2 5 3 4 7 4 5 10 18 20 16 14
45 40 40 41 35 32 33 6 10 9 9 4 5 4 8 8 5 7 7 6 6 2 4 6 3 7 4 5 6 6 7 5 6 3 4 4 6 4 2 2 18 25 21 17 16
33 43 43 44 39 42 27 11 10 7 7 10 4 4 5 5 5 5 8 6 8 11 7 5 4 1 2 2 4 4 4 4 6 2 1 4 4 1 4 4 14 20 20 19 17
24 36 45 49 45 45 15 16 7 6 7 5 10 6 9 7 7 8 9 5 5 10 3 5 2 2 3 4 3 4 6 3 2 1 4 5 6 5 8 10 7 12 23 21 18
11 7 17 46 43 25 11 8 6 7 7 6 9 6 6 8 8 6 6 1 4 5 6 6 3 1 3 6 8 2 2 4 3 5 5 2 5 4 11 13 15 20 25 22 20
12 4 12 30 12 4 12 7 8 6 4 4 4 3 7 7 6 7 9 6 13 12 9 6 5 4 8 1 3 2 7 7 5 6 3 2 9 4 6 15 19 23 23 19 17
13 12 24 17 5 4 3 3 5 6 4 4 5 4 2 6 3 2 3 1 6 8 9 8 2 2 6 3 2 4 4 3 5 4 7 5 6 3 4 10 21 22 20 14 15
12 4 4 11 3 4 4 3 4 5 2 3 2 5 4 5 9 8 8 2 2 3 3 9 3 7 10 6 5 4 5 5 5 4 5 14 7 2 3 7 12 20 14 13 15
10 5 8 6 8 9 8 8 7 4 5 16 5 11 12 6 5 8 4 3 2 4 3 5 7 4 2 2 3 4 6 10 8 8 10 6 11 4 8 9 21 24 18 14 14
4 6 4 1 8 17 12 9 14 12 9 7 10 12 11 10 9 8 6 3 5 2 4 2 2 2 2 1 2 4 6 8 7 5 7 8 18 8 5 12 18 22 20 16 17
4 6 5 5 2 11 9 18 16 12 7 5 9 5 10 10 8 9 7 8 7 8 6 6 6 4 7 3 2 8 10 15 7 8 9 14 16 3 5 12 17 16 17 18 17
Wind_Direction
244 244 242 243 247 255 259 268 280 288 292 294 298 302 305 306 306 306 308 269 222 229 245 216 197 202 197 119 71 94 64 196 234 178 263 339 6 338 330 266 270 281 293 314 309
247 244 244 247 250 254 260 265 271 278 286 293 298 300 303 306 307 303 268 220 181 163 162 175 188 186 158 146 139 100 120 219 219 182 237 307 292 318 316 308 306 311 331 325 302
252 251 251 251 254 258 265 270 275 280 284 289 291 296 302 312 316 225 179 159 154 148 154 177 178 202 209 194 195 167 195 208 251 248 263 283 294 138 240 296 298 320 334 332 327
251 252 253 256 259 264 268 273 276 280 283 286 288 292 294 301 297 218 205 203 205 214 209 206 215 165 152 235 219 246 254 238 264 246 297 277 294 290 242 275 305 316 340 26 28
253 255 256 259 262 265 268 270 273 275 280 283 284 284 287 269 254 248 235 236 253 251 228 224 207 185 176 212 206 210 280 282 280 282 284 271 261 260 275 302 336 3 222 359 350
248 252 258 262 262 261 260 261 266 272 276 278 280 280 273 246 255 249 245 245 242 234 217 220 216 204 194 215 182 213 274 281 284 277 280 246 270 294 275 351 352 340 345 343 340
253 253 253 254 257 257 258 260 265 271 276 280 281 278 266 264 262 250 244 231 222 215 215 219 200 194 170 214 239 261 317 322 275 272 204 188 292 233 270 314 341 334 336 335 331
255 253 253 253 254 255 256 259 264 270 274 276 279 275 257 259 252 246 243 239 226 217 217 214 210 216 215 207 9 12 42 324 266 166 75 150 260 272 307 324 357 5 57 61 53
249 251 253 252 254 255 257 261 268 273 274 275 275 251 261 253 235 233 229 223 214 212 208 198 185 172 142 95 2 4 232 217 315 197 123 143 273 275 295 323 338 84 73 69 65
248 247 248 248 246 247 252 261 271 274 268 268 252 260 237 225 210 205 194 181 169 171 160 171 153 87 54 110 222 205 220 245 239 158 30 283 250 271 323 352 106 94 88 78 66
248 246 243 241 241 245 249 266 266 256 231 214 221 218 233 203 188 187 181 173 156 164 156 162 120 206 203 201 172 151 186 231 264 267 344 257 257 334 32 70 94 91 88 84 77
244 241 239 235 236 239 241 231 230 246 287 249 244 243 237 217 200 200 191 181 173 180 123 65 224 232 144 170 211 251 238 262 281 272 173 289 281 72 43 62 98 105 100 98 95
244 239 234 229 232 235 236 240 251 261 268 259 236 237 231 229 223 204 190 191 171 160 190 179 215 163 175 164 167 215 192 218 228 335 285 331 290 163 63 89 97 102 106 99 91
240 237 229 223 233 232 236 232 232 225 276 250 213 214 191 179 233 202 194 184 195 200 160 236 242 175 170 186 158 241 214 212 190 95 227 32 277 309 138 100 73 113 113 109 102
234 232 226 217 212 214 226 215 196 167 283 196 157 165 161 172 138 173 180 182 167 175 133 237 173 165 185 218 157 228 148 148 119 117 70 288 303 263 117 174 177 157 135 124 113
232 227 222 218 219 221 205 182 160 74 238 216 144 166 135 172 158 127 163 161 153 148 209 234 228 183 193 123 156 137 111 69 64 103 264 233 180 263 193 203 169 175 159 146 131
230 225 218 217 217 204 190 165 162 210 129 197 187 167 168 158 167 156 159 174 168 141 211 212 223 199 181 94 55 88 70 321 338 355 227 131 133 246 296 297 186 169 167 158 147
232 224 220 221 218 207 185 180 210 192 205 128 132 113 178 158 199 169 141 190 236 206 121 166 243 167 190 182 177 176 160 162 221 200 282 319 231 258 320 345 159 165 162 161 157
239 227 220 221 218 214 190 203 220 177 174 146 108 145 220 202 148 140 189 202 200 183 172 149 265 104 100 92 131 184 176 165 106 50 49 249 293 218 92 88 142 161 172 178 174
245 228 222 222 216 218 203 213 219 194 136 150 173 168 179 188 158 182 175 203 202 186 193 200 120 206 147 104 27 158 163 87 21 162 250 277 274 226 198 195 190 191 193 190 189
227 230 237 224 217 202 213 211 200 211 166 156 194 154 184 169 182 192 196 234 190 158 130 136 119 243 109 189 181 131 180 73 126 145 180 257 256 237 192 183 191 203 200 199 201
206 198 224 180 190 183 219 159 186 153 164 151 111 142 168 163 171 202 197 214 167 150 159 182 143 178 202 116 302 214 187 159 187 234 244 163 260 354 176 188 188 200 204 208 216
187 204 191 203 222 200 121 167 209 158 174 141 144 197 171 140 96 269 219 24 174 162 163 175 203 70 344 13 360 213 203 148 105 66 201 178 263 31 86 161 202 202 204 219 243
169 153 193 204 139 141 170 212 191 244 116 139 206 146 144 161 191 192 203 171 115 169 146 161 145 168 226 191 138 183 206 178 141 150 184 230 257 204 199 213 206 206 212 276 271
172 174 179 168 217 212 184 186 198 169 215 190 192 201 184 177 177 196 166 138 79 131 95 149 208 149 27 99 126 194 193 178 188 208 202 217 229 195 200 206 215 220 269 275 262
208 139 184 150 208 177 188 207 203 200 165 201 230 198 189 193 186 196 131 157 188 78 136 28 153 102 222 321 309 273 201 221 219 225 256 259 264 268 194 221 234 255 270 249 242
216 162 204 144 196 183 200 196 211 195 191 166 214 137 197 216 145 106 110 151 154 157 161 137 134 123 238 66 62 285 218 206 199 207 215 232 246 158 185 206 229 235 238 240 234